Home   Weather   Ottawa   Past weeks
Flag for Canada

Past Weather in Ottawa, Ontario, Canada — Yesterday and Last 2 Weeks

Now
23 °F

Light snow. Overcast.


Feels Like: 14 °F
Forecast: 17 / 25 °F
Wind: 8 mph from Northeast

Location: Ottawa Int'L. Ont.

Current Time: Nov 20, 2018 at 9:00:54 am

Latest Report: Nov 20, 2018 at 8:00 am


Visibility: 1 mi

Pressure: 29.98 "Hg

Humidity: 93%

Dew Point: 21 °F

Location of OttawaLocation

Past Weather in Ottawa — Graph

°F

Ottawa Temperature Yesterday

Maximum temperature yesterday: 32 °F (at 12:00 pm)
Minimum temperature yesterday: 25 °F (at 12:00 am)
Average temperature yesterday: 27 °F

High & Low Weather Summary for the Past Weeks

 TemperatureHumidityPressure
High54 °F (Nov 6, 4:00 pm)100% (Nov 5, 2:43 pm)30.64 "Hg (Nov 5, 2:43 pm)
Low7 °F (Nov 18, 7:00 am)43% (Nov 11, 2:00 pm)29.47 "Hg (Nov 6, 5:00 pm)
Average30 °F82%30.08 "Hg
* Reported Nov 5 8:00 am — Nov 20 8:00 am, Ottawa. Weather by CustomWeather, © 2018

Note: Actual official high and low records may vary slightly from our data, if they occured in-between our weather recording intervals... More about our weather records

Advertising

Ottawa Weather History for the Previous 24 Hours

Scroll right to see more
 ConditionsComfort  
Time TempWeatherWind HumidityBarometerVisibility
8:00 am
Tue, Nov 20
23 °FLight snow. Overcast.8 mph93%29.98 "Hg1 mi
7:05 am23 °FLight snow. Overcast.9 mph93%29.98 "Hg1 mi
6:40 am23 °FLight snow. Overcast.8 mph93%29.99 "Hg2 mi
6:09 am23 °FLight snow. Low clouds.8 mph93%29.99 "Hg3 mi
6:00 am23 °FLight snow. Low clouds.8 mph93%29.99 "Hg10 mi
5:00 am23 °FLight snow. Overcast.9 mph93%29.99 "Hg10 mi
4:00 am23 °FLight snow. Overcast.9 mph93%29.99 "Hg10 mi
3:00 am23 °FLight snow. Overcast.8 mph93%30.00 "Hg10 mi
2:00 am23 °FOvercast.8 mph93%30.01 "Hg12 mi
1:31 am23 °FOvercast.8 mph93%30.01 "Hg10 mi
1:00 am23 °FLight snow. Overcast.9 mph93%30.01 "Hg10 mi
12:00 am23 °FLight snow. Overcast.8 mph93%30.03 "Hg8 mi
11:00 pm
Mon, Nov 19
25 °FLight snow. Overcast.9 mph86%30.05 "Hg8 mi
10:00 pm25 °FLight snow. Overcast.9 mph86%30.06 "Hg5 mi
9:00 pm25 °FLight snow. Mostly cloudy.10 mph86%30.06 "Hg5 mi
8:00 pm25 °FLight snow. Mostly cloudy.10 mph93%30.06 "Hg5 mi
7:00 pm27 °FLight snow. Overcast.9 mph86%30.07 "Hg8 mi
6:00 pm27 °FLight snow. Mostly cloudy.10 mph86%30.06 "Hg8 mi
5:00 pm28 °FOvercast.12 mph86%30.06 "Hg8 mi
4:41 pm28 °FOvercast.8 mph86%30.05 "Hg10 mi
4:03 pm30 °FLight snow. Mostly cloudy.8 mph86%30.05 "Hg8 mi
3:00 pm32 °FOvercast.6 mph75%30.05 "Hg15 mi
2:00 pm32 °FMostly cloudy.10 mph80%30.06 "Hg15 mi
1:00 pm32 °FMostly cloudy.2 mph80%30.06 "Hg15 mi
12:00 pm32 °FOvercast.5 mph80%30.08 "Hg10 mi
11:00 am30 °FOvercast.6 mph80%30.10 "Hg15 mi
10:00 am28 °FPartly sunny.5 mph86%30.09 "Hg10 mi
9:00 am25 °FLow clouds.3 mph93%30.10 "Hg15 mi
Weather by CustomWeather, © 2018

See weather overview